Home > Weather > Portland > Past weeks

Flag for USA Weather for the Past 2 Weeks in Portland, Maine, USA

Now
47 °F

Mostly cloudy.


Feels Like: 43 °F
Forecast: 39 / 50 °F
Wind: 7 mph from South

Location: Portland - Portland International Jetport

Current Time: May 1, 2016 at 7:36:57 PM

Latest Report: May 1, 2016 at 5:51 PM


Visibility: 10 mi

Pressure: 30.22 "Hg

Humidity: 66%

Dew Point: 36 °F

Location of PortlandLocation

Historic Weather in Portland — Graph

°F

Portland Temperature Yesterday

Maximum temperature yesterday: 54 °F (at 1:51 PM)
Minimum temperature yesterday: 31 °F (at 5:51 AM)
Average temperature yesterday: 44 °F

High & Low Weather Summary for the Past Weeks

 TemperatureHumidityPressure
High67 °F (Apr 21, 3:51 PM)96% (Apr 26, 1:51 PM)30.49 "Hg (Apr 26, 1:51 PM)
Low29 °F (Apr 27, 3:51 AM)14% (Apr 21, 10:51 AM)29.75 "Hg (Apr 23, 1:51 AM)
Average46 °F54%30.06 "Hg
* Reported Apr 16 5:51 PM — May 1 5:51 PM, Portland, Weather by CustomWeather, © 2016

Note: Actual official high and low records may vary slightly from our data, if they occured in-between our weather recording intervals... More about our weather records

Advertising

Portland Weather History for the Previous 24 Hours

Scroll right to see more
 ConditionsComfort  
Time TempWeatherWind HumidityBarometerVisibility
5:51 PM
Sun, May 1
47 °FMostly cloudy.7 mph66%30.22 "Hg10 mi
4:51 PM47 °FLight rain. Overcast.8 mph74%30.23 "Hg10 mi
3:51 PM48 °FLight rain. Overcast.7 mph68%30.24 "Hg10 mi
2:51 PM49 °FLight rain. Mostly cloudy.14 mph61%30.25 "Hg10 mi
1:51 PM50 °FOvercast.12 mph48%30.24 "Hg10 mi
12:51 PM49 °FMore clouds than sun.12 mph69%30.25 "Hg10 mi
11:51 AM50 °FMore clouds than sun.9 mph61%30.24 "Hg10 mi
10:51 AM50 °FOvercast.10 mph66%30.24 "Hg10 mi
9:51 AM50 °FOvercast.9 mph63%30.24 "Hg10 mi
8:51 AM49 °FOvercast.7 mph64%30.25 "Hg10 mi
7:51 AM47 °FOvercast.5 mph66%30.25 "Hg10 mi
6:51 AM42 °FOvercast.No wind82%30.24 "Hg10 mi
5:51 AM39 °FClear.No wind86%30.23 "Hg10 mi
4:51 AM39 °FClear.No wind86%30.23 "Hg10 mi
3:51 AM38 °FClear.No wind90%30.22 "Hg10 mi
2:51 AM39 °FClear.No wind86%30.22 "Hg10 mi
1:51 AM41 °FClear.No wind82%30.23 "Hg10 mi
12:51 AM43 °FClear.No wind76%30.24 "Hg10 mi
11:51 PM
Sat, Apr 30
42 °FHigh level clouds.No wind79%30.25 "Hg10 mi
10:51 PM42 °FPassing clouds.No wind79%30.25 "Hg10 mi
9:51 PM44 °FPassing clouds.3 mph73%30.26 "Hg10 mi
8:51 PM45 °FPassing clouds.3 mph71%30.25 "Hg10 mi
7:51 PM46 °FPartly sunny.9 mph71%30.23 "Hg10 mi
Weather by CustomWeather, © 2016

See weather overviewHow to use our weather pages